Location: Taupo
(38.6830°S, 176.0830°E)
Time: 10:54:20
(UTC+13:00)

SL-16 R/B - Pass Details

Date: 24 January 2019
Orbit: 842 x 846 km, 71.0° (Epoch: 14 February)

Event Time Altitude Azimuth Distance (km) Brightness Sun altitude
Rises 22:37:11 0° 316° (NW) 3,399 5.3 -19.7°
Reaches altitude 10° 22:39:48 10° 307° (NW) 2,471 4.7 -20.0°
Maximum altitude 22:45:01 37° 240° (WSW) 1,306 3.7 -20.7°
Drops below altitude 10° 22:50:18 10° 173° (S) 2,494 5.2 -21.4°
Sets 22:52:58 0° 164° (SSE) 3,436 5.9 -21.7°
